Weather History for Truckee-Tahoe, CA

Change the Weather History Date:

Thursday, January 24, 2013

  Actual Average Record
Temperature  
Mean Temperature 36 °F -  
Max Temperature 39 °F 40 °F 78 °F (2003)
Min Temperature 32 °F 13 °F -20 °F (1962)
Degree Days  
Heating Degree Days 30    
Moisture  
Dew Point 32 °F    
Average Humidity 95    
Maximum Humidity 100    
Minimum Humidity 81    
Precipitation  
Precipitation 0.07 in - - ()
Snow  
Snow 0.00 in - - ()
Snow Depth 15.00 in    
Sea Level Pressure  
Sea Level Pressure 30.21 in    
Wind  
Wind Speed 0 mph (NNE)    
Max Wind Speed 6 mph    
Max Gust Speed -    
Visibility 5 miles    
Events Fog , Rain    
Averages and records for this station are not official NWS values.
T = Trace of Precipitation, MM = Missing Value Source: NWS Daily Summary

Daily Weather History Graph

Daily Weather History Graph

Search for Another Location

Airport:

Trip Planner

Search our weather history database for the weather conditions in past years. The results will help you decide how hot, cold, wet, or windy it might be!

Date:

Astronomy

Jan. 24, 2013 Rise Set
Actual Time 7:13 AM PST 5:12 PM PST
Civil Twilight 6:44 AM PST 5:41 PM PST
Nautical Twilight 6:12 AM PST 6:13 PM PST
Astronomical Twilight 5:40 AM PST 6:45 PM PST
Moon 3:19 PM PST (1/24) 5:14 AM PST (1/24)
Length of Visible Light 10h 56m
Length of Day
9h 58m
Waxing Gibbous, 95% of the Moon is Illuminated
Jan 24
Waxing Gibbous
Jan 26
Full
Feb 3
Last Quarter
Feb 9
New
Feb 17
First Quarter

Hourly Weather History & Observations

Time (PST) Temp. Windchill Dew Point Humidity Pressure Visibility Wind Dir Wind Speed Gust Speed Precip Events Conditions
12:15 AM 33.8 °F - 28.4 °F 81% 30.17 in 10.0 mi Calm Calm - N/A   Overcast
12:35 AM 32.0 °F - 28.4 °F 87% 30.17 in 10.0 mi Calm Calm - N/A Rain Light Rain
12:55 AM 32.0 °F - 28.4 °F 87% 30.17 in 9.0 mi Calm Calm - N/A Rain Light Rain
1:15 AM 32.0 °F 28.7 °F 30.2 °F 93% 30.16 in 10.0 mi NE 3.5 mph - N/A Rain Light Rain
1:35 AM 32.0 °F - 30.2 °F 93% 30.16 in 9.0 mi Calm Calm - 0.01 in Rain Light Rain
1:55 AM 32.0 °F - 30.2 °F 93% 30.17 in 10.0 mi Calm Calm - 0.01 in Rain Light Rain
2:15 AM 32.0 °F - 32.0 °F 100% 30.16 in 8.0 mi Calm Calm - 0.01 in Rain Light Rain
2:35 AM 32.0 °F - 32.0 °F 100% 30.17 in 9.0 mi Calm Calm - N/A Rain Light Rain
2:55 AM 32.0 °F - 32.0 °F 100% 30.17 in 9.0 mi Calm Calm - 0.01 in Rain Light Rain
3:15 AM 32.0 °F - 32.0 °F 100% 30.17 in 9.0 mi Calm Calm - N/A Rain Light Rain
3:35 AM 32.0 °F - 32.0 °F 100% 30.17 in 10.0 mi Calm Calm - N/A   Overcast
3:55 AM 32.0 °F - 32.0 °F 100% 30.17 in 9.0 mi Calm Calm - N/A   Overcast
4:15 AM 32.0 °F - 32.0 °F 100% 30.16 in 7.0 mi Calm Calm - N/A   Overcast
4:35 AM 32.0 °F - 32.0 °F 100% 30.16 in 6.0 mi Calm Calm - N/A   Overcast
4:55 AM 32.0 °F - 32.0 °F 100% 30.16 in 5.0 mi Calm Calm - N/A   Overcast
5:15 AM 32.0 °F - 32.0 °F 100% 30.17 in 5.0 mi Calm Calm - N/A   Overcast
5:35 AM 32.0 °F - 32.0 °F 100% 30.18 in 3.0 mi Calm Calm - N/A   Overcast
6:55 AM 32.0 °F - 32.0 °F 100% 30.17 in 4.0 mi Calm Calm - N/A   Overcast
7:45 AM 32.0 °F - 32.0 °F 100% 30.19 in 2.0 mi Calm Calm - N/A   Overcast
8:50 AM 32.0 °F - 32.0 °F 100% 30.21 in 2.0 mi Calm Calm - N/A   Overcast
9:55 AM 35.6 °F - 32.0 °F 87% 30.23 in 10.0 mi Calm Calm - N/A   Mostly Cloudy
10:45 AM 35.6 °F 30.7 °F 32.0 °F 87% 30.23 in 10.0 mi North 5.8 mph - N/A   Scattered Clouds
11:45 AM 39.2 °F 35.9 °F 33.8 °F 81% 30.22 in 10.0 mi NNW 4.6 mph - N/A   Mostly Cloudy
12:45 PM 39.2 °F - 33.8 °F 81% 30.20 in 10.0 mi Calm Calm - N/A   Overcast
2:45 PM 39.2 °F - 33.8 °F 81% 30.20 in 10.0 mi Calm Calm - N/A   Overcast
3:45 PM 39.2 °F - 33.8 °F 81% 30.21 in 10.0 mi Calm Calm - N/A Rain Light Rain Showers
4:50 PM 37.4 °F - 35.6 °F 93% 30.22 in 10.0 mi Calm Calm - N/A   Overcast
4:55 PM 37.4 °F - 35.6 °F 93% 30.23 in 8.0 mi Calm Calm - 0.01 in Rain Light Rain
5:15 PM 37.4 °F - 35.6 °F 93% 30.23 in 5.0 mi Calm Calm - 0.01 in Rain Light Rain
5:35 PM 35.6 °F - 33.8 °F 93% 30.23 in 5.0 mi Calm Calm - 0.01 in Rain Light Rain
5:55 PM 35.6 °F - 35.6 °F 100% 30.24 in 4.0 mi Calm Calm - 0.03 in Rain Light Rain
6:15 PM 35.6 °F 32.8 °F 33.8 °F 93% 30.24 in 3.0 mi South 3.5 mph - N/A Rain Light Rain
6:35 PM 33.8 °F - 33.8 °F 100% 30.24 in 0.5 mi Calm Calm - 0.01 in Rain Light Rain
6:55 PM 35.6 °F - 33.8 °F 93% 30.25 in 2.5 mi Calm Calm - 0.01 in   Overcast
7:15 PM 35.6 °F - 33.8 °F 93% 30.25 in 0.8 mi Calm Calm - N/A   Overcast
7:35 PM 35.6 °F - 33.8 °F 93% 30.25 in 0.2 mi Calm Calm - N/A Fog Fog
7:55 PM 33.8 °F - 33.8 °F 100% 30.25 in 0.2 mi Calm Calm - N/A Fog Fog
8:15 PM 33.8 °F - 32.0 °F 93% 30.25 in 0.2 mi Calm Calm - N/A Fog Fog
8:35 PM 33.8 °F - 32.0 °F 93% 30.25 in 0.2 mi Calm Calm - N/A Fog Fog
8:55 PM 33.8 °F - 32.0 °F 93% 30.25 in 0.2 mi Calm Calm - N/A Fog Fog
9:15 PM 33.8 °F - 33.8 °F 100% 30.26 in 0.2 mi Calm Calm - N/A Fog Fog
9:35 PM 33.8 °F - 32.0 °F 93% 30.26 in 0.2 mi Calm Calm - N/A Fog Fog
9:55 PM 32.0 °F - 32.0 °F 100% 30.26 in 0.2 mi Calm Calm - N/A Fog Fog
10:15 PM 32.0 °F - 32.0 °F 100% 30.26 in 0.2 mi Calm Calm - N/A Fog Fog
10:35 PM 32.0 °F - 32.0 °F 100% 30.26 in 0.2 mi Calm Calm - N/A Fog Fog
10:55 PM 32.0 °F 28.7 °F 32.0 °F 100% 30.26 in 0.2 mi North 3.5 mph - N/A Fog Fog
11:15 PM 32.0 °F - 32.0 °F 100% 30.26 in 0.2 mi Calm Calm - N/A Fog Fog
11:35 PM 32.0 °F - 32.0 °F 100% 30.26 in 0.2 mi Calm Calm - N/A Fog Fog
11:55 PM 32.0 °F - 32.0 °F 100% 30.26 in 0.2 mi Calm Calm - N/A Fog Fog